Location: North Evanston
(42.0634°N, 87.6976°W)
Time: 14:18:55
(UTC+00:00)

Injun/Solrad 3 - Pass Details

Date: 18 May 2026
Orbit: 867 x 989 km, 66.8° (Epoch: 7 June)

Event Time Altitude Azimuth Distance (km) Brightness Sun altitude
Rises 21:12:50 0° 226° (SW) 3,512 11.5 41.5°
Reaches altitude 10° 21:15:23 10° 232° (SW) 2,592 11.2 41.0°
Maximum altitude 21:21:12 49° 307° (NW) 1,185 9.6 39.9°
Drops below altitude 10° 21:27:16 10° 22° (NNE) 2,689 10.2 38.8°
Sets 21:29:58 0° 28° (NNE) 3,656 10.7 38.3°
